Weather in Ostrozhka

Russia / Perm Krai     57°40′13″N   55°10′15″E
temp.,
°C
wind,
m/s
gust,
m/s
humid.,
%
clouds,
%
prec.,
mm/h
press.,
hPa
HPBL,
m
28 february, sun
sun2823:00−14e41092100 0.6 1008531
02:00−16ene4895100 0.3 1007432
05:00−17ene499499 0.4 1007454
08:00−16ene4995100 0.3 1008472
11:00−15ne5891100 0.6 1008518
14:00−13ne5789100 0.2 1009598
17:00−13ne4790100 0.3 1010612
20:00−15nne489595 0.1 1012334
1 march, mon
mon123:00−18ne369791 0.1 1014149
02:00−20nne349983 0.0 101584
05:00−21nne349983 0.0 101797
08:00−22nne239978 0.0 101839
11:00−18nne239376 0.0 1019242
14:00−13nne128494 0.0 1018449
17:00−12nw118497 0.0 1018422
20:00−18ssw229580 0.0 101620
2 march, tue
tue223:00−19ssw239645 0.0 101637
02:00−19ssw399851 0.0 1013186
05:00−18s5119574 0.0 1011319
08:00−18s61293100 0.0 1008382
11:00−16s61293100 0.3 1006427
14:00−13s61192100 0.4 1003526
17:00−12s51093100 1.0 1002598
20:00−11s41093100 0.4 1001550
3 march, wed
wed323:00−11s4995100 0.9 1000446
02:00−11sse3796100 0.6 999305
05:00−11sse2696100 0.9 998209
08:00−11sse1296100 0.5 99857
11:00−9ssw1291100 0.7 998223
14:00−6w1287100 0.0 998450
17:00−4wnw2394100 0.4 998316
20:00−7nnw5119198 0.4 999475
4 march, thu
thu423:00−10nw239696 0.5 100264
02:00−12wnw249549 0.1 100257
05:00−13wnw229758 0.1 100331
08:00−14w349665 0.0 100493
11:00−11w359246 0.0 1004279
14:00−7wsw468879 0.0 1004601
17:00−7sw588890 0.1 1002799
20:00−8ssw61392100 0.2 1000618